Terug naar catalogus

STARLINK-36509

ActiefCommunicatieVLEO
NORAD 67408·PAYLOAD·🇺🇸 United States

Gelanceerd Jan 12, 2026 vanaf Cape Canaveral Space Force Station

Loading…

Volgende Passages (komende 24 uur)

TLE

VersSource: CelesTrak SupGP

Epoch: Sep 15, 2026, 03:19 UTC

1 67408C 26005E   26258.13868056 -.00021294  00000+0 -77143-3 0  2580
2 67408  43.0010 247.9254 0001224 265.7353  35.8775 15.27581757    12

Volg STARLINK-36509 in realtime met AllMySat

Download on the App Store